Flag for Ecuador Weather past 2 weeks in Guayaquil, Ecuador

Now
72 °F

Passing clouds.


Feels Like: 71 °F
Forecast: 72 / 84 °F
Wind: 10 mph from Southwest

Location: Guayaquil / Simon Bolivar

Current Time: Aug 23, 2014 at 1:35:55 AM

Latest Report: Aug 23, 2014 at 1:00 AM


Visibility: N/A

Pressure: 29.89 "Hg

Humidity: 83%

Dew point: 66 °F

Location of GuayaquilLocation

Historic Weather in Guayaquil — Graph

°F

Guayaquil temperature yesterday

Maximum temperature yesterday: 84 °F (at 3:00 PM)
Minimum temperature yesterday: 72 °F (at 5:00 AM)
Average temperature yesterday: 77 °F

Past Weeks' High & Low Weather Summary

 TemperatureHumidityPressure
High100 °F (Aug 16, 6:00 PM)89% (Aug 10, 6:00 AM)29.95 "Hg (Aug 10, 6:00 AM)
Low72 °F (Aug 11, 2:00 AM)40% (Aug 16, 6:00 PM)29.74 "Hg (Aug 14, 4:00 PM)
Average77 °F76%29.86 "Hg
* Reported Midnight between Aug 7 and Aug 8 — Midnight between Aug 22 and Aug 23, Guayaquil, Weather by CustomWeather, © 2014

Note: Actual official high and low records may vary slightly from our data, if they occured in-between our weather recording intervals... More about our weather records

Advertising

Guayaquil weather history for previous 24 hours

 ConditionsComfort  
Time TempWeatherWind HumidityBarometerVisibility
12:00 AM
Aug 23
73 °FPassing clouds.15 mph78%29.92 "HgN/A
11:00 PM
Aug 22
73 °FPartly cloudy.12 mph78%29.92 "HgN/A
10:00 PM75 °FPartly cloudy.12 mph69%29.89 "HgN/A
9:00 PM77 °FPassing clouds.14 mph65%29.89 "HgN/A
8:00 PM79 °FPassing clouds.12 mph65%29.86 "HgN/A
7:00 PM81 °FPassing clouds.7 mph62%29.86 "HgN/A
6:00 PM81 °FBroken clouds.6 mph66%29.83 "HgN/A
5:00 PM82 °FPartly sunny.5 mph58%29.80 "HgN/A
4:00 PM82 °FScattered clouds.9 mph66%29.80 "HgN/A
3:00 PM84 °FScattered clouds.7 mph58%29.80 "HgN/A
2:00 PM82 °FBroken clouds.9 mph62%29.83 "HgN/A
1:00 PM82 °FBroken clouds.9 mph66%29.86 "HgN/A
12:00 PM82 °FBroken clouds.8 mph62%29.89 "HgN/A
11:00 AM81 °FBroken clouds.7 mph66%29.92 "HgN/A
10:00 AM81 °FScattered clouds.6 mph66%29.92 "HgN/A
9:00 AM77 °FScattered clouds.6 mph69%29.92 "HgN/A
8:00 AM72 °FScattered clouds.7 mph83%29.92 "HgN/A
7:00 AM72 °FBroken clouds.7 mph83%29.89 "HgN/A
6:00 AM72 °FPassing clouds.6 mph83%29.89 "HgN/A
5:00 AM72 °FPartly cloudy.6 mph83%29.89 "HgN/A
4:00 AM73 °FPartly cloudy.6 mph78%29.89 "HgN/A
3:00 AM73 °FPassing clouds.12 mph78%29.89 "HgN/A
2:00 AM73 °FPartly cloudy.8 mph78%29.92 "HgN/A
1:00 AM73 °FPartly cloudy.9 mph83%29.92 "HgN/A
Weather by CustomWeather, © 2014

See weather overviewHow to use our weather pages